EST,Max TemperatureF,Mean TemperatureF,Min TemperatureF,Max Dew PointF,MeanDew PointF,Min DewpointF,Max Humidity, Mean Humidity, Min Humidity, Max Sea Level PressureIn, Mean Sea Level PressureIn, Min Sea Level PressureIn, Max VisibilityMiles, Mean VisibilityMiles, Min VisibilityMiles, Max Wind SpeedMPH, Mean Wind SpeedMPH, Max Gust SpeedMPH,PrecipitationIn, CloudCover, Events, WindDirDegrees
2012-12-1,78,61,44,55,47,42,92,62,32,30.33,30.27,30.24,10,10,6,12,2,14,0.00,1,Fog,68
2012-12-2,80,64,47,58,50,44,93,66,39,30.35,30.28,30.23,10,9,1,12,2,18,0.00,2,Fog,181
2012-12-3,79,64,48,59,52,44,94,79,38,30.32,30.27,30.21,10,8,0,8,1,,0.00,2,Fog,142
2012-12-4,80,65,50,59,51,46,93,66,39,30.32,30.26,30.22,10,6,0,10,2,18,0.00,5,Fog,165
2012-12-5,80,63,46,54,47,43,93,63,32,30.22,30.14,30.07,10,10,10,9,1,12,0.00,1,Fog,73
2012-12-6,80,67,54,59,54,48,93,68,42,30.09,30.04,29.98,10,10,10,15,5,20,0.00,5,,96
2012-12-7,72,63,53,58,56,50,87,74,61,30.06,30.01,29.96,10,10,10,10,4,14,0.00,5,,74
2012-12-8,73,63,52,63,57,49,100,84,68,30.07,30.03,29.99,10,4,0,12,3,14,0.00,7,Fog,122
2012-12-9,78,70,62,63,61,57,100,75,50,30.12,30.06,30.02,10,8,0,10,3,15,0.00,6,Fog,128
2012-12-10,79,70,61,66,62,58,100,77,54,30.00,29.90,29.80,10,8,0,18,5,24,0.00,5,Fog,178
2012-12-11,69,61,53,67,58,48,93,83,72,30.13,29.96,29.84,10,9,6,12,6,14,0.05,7,Rain,329
2012-12-12,54,52,49,51,48,46,96,91,86,30.19,30.12,30.06,10,5,1,13,6,17,0.87,8,Rain,2
2012-12-13,53,51,48,47,45,42,86,76,66,30.31,30.25,30.17,10,10,7,14,8,22,0.00,8,,26
2012-12-14,63,53,42,47,43,39,92,75,57,30.34,30.26,30.17,10,9,0,14,4,115,0.00,5,Fog,50
2012-12-15,70,55,40,56,47,37,93,77,61,30.21,30.15,30.08,10,8,1,7,1,9,0.00,4,,294
2012-12-16,75,62,49,66,56,46,96,78,60,30.07,30.01,29.93,10,6,0,14,4,18,0.00,6,Fog,185
2012-12-17,80,71,61,66,62,59,93,74,54,29.94,29.88,29.81,10,8,2,35,7,43,0.49,7,Rain,220
2012-12-18,71,56,40,60,47,33,93,60,26,30.06,29.96,29.84,10,10,5,14,5,18,0.00,1,,296
2012-12-19,73,54,34,45,38,31,92,60,27,30.14,30.08,30.05,10,10,10,8,2,40,0.00,0,,162
2012-12-20,74,58,41,67,53,33,100,75,50,30.06,29.95,29.81,10,7,0,28,8,36,0.70,5,Fog-Rain,197
2012-12-21,56,44,32,31,21,9,58,37,15,30.27,30.17,30.08,10,10,10,22,12,29,0.00,0,,291
2012-12-22,60,43,26,26,19,8,75,44,13,30.37,30.29,30.25,10,10,10,15,4,20,0.00,0,,321
2012-12-23,63,45,27,37,27,18,85,51,17,30.30,30.22,30.15,10,10,10,14,1,16,0.00,0,,178
2012-12-24,71,58,45,61,54,37,97,81,65,30.12,29.98,29.91,10,8,0,24,4,31,0.19,5,Fog-Rain,188
2012-12-25,69,61,53,64,59,51,100,87,73,29.96,29.91,29.77,10,5,0,21,7,28,0.36,7,Fog-Rain-Thunderstorm,146
2012-12-26,70,55,40,64,48,31,84,64,43,30.07,29.81,29.63,10,10,4,29,13,39,0.09,5,Rain-Thunderstorm,264
2012-12-27,58,46,33,36,31,29,89,65,40,30.14,30.09,30.05,10,10,10,14,4,17,0.00,2,,313
2012-12-28,63,47,31,45,35,25,92,59,25,30.12,30.02,29.84,10,10,8,12,4,18,0.00,3,,137
2012-12-29,65,52,39,62,45,27,97,74,51,30.28,29.98,29.75,10,9,2,22,11,29,0.52,6,Rain,311
2012-12-30,56,44,31,30,26,24,82,56,30,30.46,30.38,30.30,10,10,10,16,5,20,0.00,0,,350
2012-12-31,66,48,30,49,38,26,93,72,51,30.41,30.31,30.22,10,10,9,12,2,15,0.00,2,,162